| time (UTC) | temp C | wind direction | speed KPH | gust KPH | rain 1hr cm | rain 24hr cm | rain mn cm | humidity % | barometer mb |
| 20260505064545 | 13 | 0 | 0.0 | 0.0 | 0.00 | 0.00 | 0.00 | 69 | 1015.9 |
| 20260505063049 | 14 | 0 | 0.0 | 1.6 | 0.00 | 0.00 | 0.00 | 67 | 1015.6 |
| 20260505061552 | 14 | 0 | 0.0 | 1.6 | 0.00 | 0.00 | 0.00 | 67 | 1015.7 |
| 20260505060057 | 14 | 0 | 0.0 | 1.6 | 0.00 | 0.00 | 0.00 | 68 | 1015.9 |
| 20260505054550 | 13 | 0 | 0.0 | 0.0 | 0.00 | 0.00 | 0.00 | 70 | 1015.9 |
| 20260505053109 | 14 | 0 | 0.0 | 0.0 | 0.00 | 0.00 | 0.00 | 69 | 1016.1 |
| 20260505051545 | 14 | 0 | 0.0 | 0.0 | 0.00 | 0.00 | 0.00 | 69 | 1016.0 |
| 20260505050103 | 15 | 0 | 0.0 | 1.6 | 0.00 | 0.00 | 0.00 | 67 | 1016.0 |
| 20260505041545 | 15 | 293 | 0.0 | 9.7 | 0.00 | 0.00 | 0.00 | 66 | 1015.7 |
| 20260505040050 | 15 | 297 | 1.6 | 8.0 | 0.00 | 0.00 | 0.00 | 66 | 1015.8 |
| 20260505034610 | 15 | 0 | 0.0 | 1.6 | 0.00 | 0.00 | 0.00 | 68 | 1015.8 |
| 20260505033047 | 15 | 0 | 0.0 | 3.2 | 0.00 | 0.00 | 0.00 | 68 | 1016.0 |
| 20260505031546 | 16 | 0 | 0.0 | 8.0 | 0.00 | 0.00 | 0.00 | 63 | 1016.0 |
| 20260505030042 | 16 | 261 | 3.2 | 8.0 | 0.00 | 0.00 | 0.00 | 62 | 1016.1 |
| 20260505024543 | 17 | 267 | 0.0 | 3.2 | 0.00 | 0.00 | 0.00 | 62 | 1016.2 |
| 20260505023047 | 17 | 274 | 1.6 | 4.8 | 0.00 | 0.00 | 0.00 | 61 | 1016.3 |
| 20260505021541 | 17 | 0 | 0.0 | 1.6 | 0.00 | 0.00 | 0.00 | 60 | 1016.1 |
| 20260505020040 | 17 | 187 | 0.0 | 3.2 | 0.00 | 0.00 | 0.00 | 58 | 1016.0 |
| 20260505014544 | 17 | 290 | 0.0 | 4.8 | 0.00 | 0.00 | 0.00 | 58 | 1016.0 |
| 20260505013043 | 17 | 272 | 0.0 | 3.2 | 0.00 | 0.00 | 0.00 | 58 | 1015.8 |
| 20260505011604 | 18 | 285 | 0.0 | 4.8 | 0.00 | 0.00 | 0.00 | 57 | 1015.7 |
| 20260505010049 | 18 | 289 | 1.6 | 4.8 | 0.00 | 0.00 | 0.00 | 55 | 1015.6 |
| 20260505004542 | 18 | 283 | 0.0 | 3.2 | 0.00 | 0.00 | 0.00 | 55 | 1015.6 |
| 20260505003041 | 19 | 270 | 1.6 | 6.4 | 0.00 | 0.00 | 0.00 | 53 | 1015.5 |
| 20260505001602 | 20 | 272 | 3.2 | 8.0 | 0.00 | 0.00 | 0.00 | 52 | 1015.4 |
| 20260505000104 | 21 | 286 | 3.2 | 6.4 | 0.00 | 0.00 | 0.00 | 51 | 1015.3 |
| 20260504234545 | 22 | 297 | 3.2 | 6.4 | 0.00 | 0.00 | 0.00 | 49 | 1015.3 |
| 20260504233057 | 22 | 312 | 1.6 | 6.4 | 0.00 | 0.00 | 0.00 | 48 | 1015.3 |
| 20260504231547 | 23 | 291 | 6.4 | 11.3 | 0.00 | 0.00 | 0.00 | 46 | 1015.3 |
| 20260504230053 | 24 | 340 | 1.6 | 8.0 | 0.00 | 0.00 | 0.00 | 45 | 1015.1 |
| 20260504224549 | 24 | 328 | 3.2 | 16.1 | 0.00 | 0.00 | 0.00 | 45 | 1015.2 |
| 20260504223044 | 23 | 335 | 3.2 | 11.3 | 0.00 | 0.00 | 0.00 | 44 | 1015.1 |
| 20260504221547 | 23 | 305 | 6.4 | 11.3 | 0.00 | 0.00 | 0.00 | 48 | 1015.2 |
| 20260504220043 | 23 | 319 | 3.2 | 9.7 | 0.00 | 0.00 | 0.00 | 44 | 1015.0 |
| 20260504214546 | 23 | 13 | 3.2 | 12.9 | 0.00 | 0.00 | 0.00 | 47 | 1015.1 |
| 20260504213045 | 22 | 286 | 6.4 | 16.1 | 0.00 | 0.00 | 0.00 | 48 | 1015.1 |
| 20260504211542 | 22 | 308 | 3.2 | 16.1 | 0.00 | 0.00 | 0.00 | 47 | 1015.1 |
| 20260504210044 | 22 | 310 | 4.8 | 11.3 | 0.00 | 0.00 | 0.00 | 47 | 1015.3 |
| 20260504204543 | 22 | 303 | 6.4 | 19.3 | 0.00 | 0.00 | 0.00 | 47 | 1015.6 |
| 20260504203050 | 22 | 334 | 3.2 | 19.3 | 0.00 | 0.00 | 0.00 | 50 | 1015.7 |
| 20260504201545 | 22 | 236 | 8.0 | 14.5 | 0.00 | 0.00 | 0.00 | 49 | 1016.0 |
| 20260504200043 | 21 | 280 | 9.7 | 17.7 | 0.00 | 0.00 | 0.00 | 49 | 1016.2 |
| 20260504194548 | 21 | 299 | 11.3 | 17.7 | 0.00 | 0.00 | 0.00 | 50 | 1016.5 |
| 20260504193044 | 21 | 295 | 4.8 | 19.3 | 0.00 | 0.00 | 0.00 | 54 | 1016.7 |
| 20260504191551 | 21 | 314 | 6.4 | 14.5 | 0.00 | 0.00 | 0.00 | 53 | 1017.2 |
| 20260504190040 | 21 | 289 | 6.4 | 12.9 | 0.00 | 0.00 | 0.00 | 55 | 1017.4 |
| 20260504184548 | 21 | 296 | 9.7 | 19.3 | 0.00 | 0.00 | 0.00 | 54 | 1017.5 |
| 20260504183044 | 20 | 302 | 8.0 | 19.3 | 0.00 | 0.00 | 0.00 | 55 | 1017.7 |
| 20260504181542 | 20 | 313 | 6.4 | 20.9 | 0.00 | 0.00 | 0.00 | 52 | 1017.8 |
| 20260504180043 | 20 | 327 | 6.4 | 19.3 | 0.00 | 0.00 | 0.00 | 52 | 1018.1 |
| 20260504174541 | 19 | 281 | 9.7 | 19.3 | 0.00 | 0.00 | 0.00 | 56 | 1018.2 |
| 20260504173043 | 19 | 313 | 3.2 | 12.9 | 0.00 | 0.00 | 0.00 | 51 | 1018.3 |
| 20260504171550 | 18 | 331 | 6.4 | 22.5 | 0.00 | 0.00 | 0.00 | 51 | 1018.4 |
| 20260504081550 | 8 | 0 | 0.0 | 6.4 | 0.00 | 0.00 | 0.00 | 64 | 1019.4 |